Tillbaka till svenska Fidonet
English   Information   Debug  
FILM   0/18
FNEWS_PUBLISH   4990
FN_SYSOP   42233
FN_SYSOP_OLD1   71952
FTP_FIDO   0/2
FTSC_PUBLIC   0/13977
FUNNY   0/4886
GENEALOGY.EUR   0/71
GET_INFO   105
GOLDED   0/408
HAM   11897/16739
HOLYSMOKE   0/6791
HOT_SITES   0/1
HTMLEDIT   0/71
HUB203   466
HUB_100   264
HUB_400   39
HUMOR   0/29
IC   0/2851
INTERNET   0/424
INTERUSER   0/3
IP_CONNECT   719
JAMNNTPD   0/233
JAMTLAND   0/47
KATTY_KORNER   0/41
LAN   0/16
LINUX-USER   0/19
LINUXHELP   0/1155
LINUX   0/22398
LINUX_BBS   0/957
mail   18.68
mail_fore_ok   249
MENSA   0/341
MODERATOR   0/102
MONTE   0/992
MOSCOW_OKLAHOMA   0/1245
MUFFIN   0/783
MUSIC   0/321
N203_STAT   938
N203_SYSCHAT   313
NET203   321
NET204   69
NET_DEV   0/10
NORD.ADMIN   0/101
NORD.CHAT   0/2572
NORD.FIDONET   189
NORD.HARDWARE   0/28
NORD.KULTUR   0/114
NORD.PROG   0/32
NORD.SOFTWARE   0/88
NORD.TEKNIK   0/58
NORD   0/453
OCCULT_CHAT   0/93
OS2BBS   0/787
OS2DOSBBS   0/580
OS2HW   0/42
OS2INET   0/37
OS2LAN   0/134
OS2PROG   0/36
OS2REXX   0/113
OS2USER-L   207
OS2   0/4831
OSDEBATE   0/18996
PASCAL   0/490
PERL   0/457
PHP   0/45
POINTS   0/405
POLITICS   0/29554
POL_INC   0/14731
PSION   103
R20_ADMIN   1133
R20_AMATORRADIO   0/2
R20_BEST_OF_FIDONET   16
R20_CHAT   0/897
R20_DEPP   0/3
R20_DEV   400
R20_ECHO2   1898
R20_ECHOPRES   0/35
R20_ESTAT   0/719
R20_FIDONETPROG...
...RAM.MYPOINT
  0/2
R20_FIDONETPROGRAM   0/22
R20_FIDONET   0/248
R20_FILEFIND   0/24
R20_FILEFOUND   0/22
R20_HIFI   0/3
R20_INFO2   3790
R20_INTERNET   0/12940
R20_INTRESSE   0/60
R20_INTR_KOM   0/99
R20_KANDIDAT.CHAT   42
R20_KANDIDAT   28
R20_KOM_DEV   112
R20_KONTROLL   0/13360
R20_KORSET   0/18
R20_LOKALTRAFIK   0/24
R20_MODERATOR   0/1852
R20_NC   76
R20_NET200   245
R20_NETWORK.OTH...
...ERNETS
  0/13
R20_OPERATIVSYS...
...TEM.LINUX
  0/44
R20_PROGRAMVAROR   0/1
R20_REC2NEC   534
R20_SFOSM   0/341
R20_SF   0/108
R20_SPRAK.ENGLISH   0/1
R20_SQUISH   107
R20_TEST   2
R20_WORST_OF_FIDONET   20
RAR   0/9
RA_MULTI   106
RA_UTIL   0/162
REGCON.EUR   0/2070
REGCON   0/13
SCIENCE   0/1206
SF   0/239
SHAREWARE_SUPPORT   0/5146
SHAREWRE   0/14
SIMPSONS   0/169
STATS_OLD1   0/2539.065
STATS_OLD2   0/2530
STATS_OLD3   0/2395.095
STATS_OLD4   0/1692.25
SURVIVOR   0/495
SYSOPS_CORNER   0/3
SYSOP   0/84
TAGLINES   0/112
TEAMOS2   0/4530
TECH   0/2617
TEST.444   0/105
TRAPDOOR   0/19
TREK   0/755
TUB   0/290
UFO   0/40
UNIX   0/1316
USA_EURLINK   0/102
USR_MODEMS   0/1
VATICAN   0/2740
VIETNAM_VETS   0/14
VIRUS   0/378
VIRUS_INFO   0/201
VISUAL_BASIC   0/473
WHITEHOUSE   0/5187
WIN2000   0/101
WIN32   0/30
WIN95   0/4291
WIN95_OLD1   0/70272
WINDOWS   0/1517
WWB_SYSOP   0/419
WWB_TECH   0/810
ZCC-PUBLIC   0/1
ZEC   4

 
4DOS   0/134
ABORTION   0/7
ALASKA_CHAT   0/506
ALLFIX_FILE   0/1313
ALLFIX_FILE_OLD1   0/7997
ALT_DOS   0/152
AMATEUR_RADIO   0/1039
AMIGASALE   0/14
AMIGA   0/331
AMIGA_INT   0/1
AMIGA_PROG   0/20
AMIGA_SYSOP   0/26
ANIME   0/15
ARGUS   0/924
ASCII_ART   0/340
ASIAN_LINK   0/651
ASTRONOMY   0/417
AUDIO   0/92
AUTOMOBILE_RACING   0/105
BABYLON5   0/17862
BAG   135
BATPOWER   0/361
BBBS.ENGLISH   0/382
BBSLAW   0/109
BBS_ADS   0/5290
BBS_INTERNET   0/507
BIBLE   0/3563
BINKD   0/1119
BINKLEY   0/215
BLUEWAVE   0/2173
CABLE_MODEMS   0/25
CBM   0/46
CDRECORD   0/66
CDROM   0/20
CLASSIC_COMPUTER   0/378
COMICS   0/15
CONSPRCY   0/899
COOKING   42080
COOKING_OLD1   0/24719
COOKING_OLD2   0/40862
COOKING_OLD3   0/37489
COOKING_OLD4   0/35496
COOKING_OLD5   9370
C_ECHO   0/189
C_PLUSPLUS   0/31
DIRTY_DOZEN   0/201
DOORGAMES   0/2357
DOS_INTERNET   0/196
duplikat   6102
ECHOLIST   0/18295
EC_SUPPORT   0/318
ELECTRONICS   0/359
ELEKTRONIK.GER   1534
ENET.LINGUISTIC   0/13
ENET.POLITICS   0/4
ENET.SOFT   0/11701
ENET.SYSOP   34340
ENET.TALKS   0/32
ENGLISH_TUTOR   0/2000
EVOLUTION   0/1335
FDECHO   0/217
FDN_ANNOUNCE   3417/7068
FIDONEWS   25131
FIDONEWS_OLD1   0/49742
FIDONEWS_OLD2   0/35949
FIDONEWS_OLD3   0/30874
FIDONEWS_OLD4   0/37224
FIDO_SYSOP   12975
FIDO_UTIL   0/180
FILEFIND   0/209
FILEGATE   0/212
Möte HAM, 16739 texter
 lista första sista föregående nästa
Text 2456, 802 rader
Skriven 2008-08-21 22:30:21 av Amsat List (1:323/120.0)
Ärende: [keps]  orb08234.amsa
=============================
[keps]  orb08234.amsa

Return-Path: <keps-bounces@amsat.org>
X-Rcpt: craig.healy@chowda.com
X-UIDL: 1219371503.3696

SB KEPS @ AMSAT  $ORB08234.O
Orbital Elements  08234.OSCAR

HR AMSAT ORBITAL ELEMENTS FOR OSCAR SATELLITES
FROM WA5QGD FORT WORTH,TX August 21, 2008
Send Subscribe/unsubscribe to KEPS at 
http://www.amsat.org/mailman/listinfo/keps
BID: ORB08234.O
TO ALL RADIO AMATEURS BT

Satellite: AO-07
Catalog number: 07530
Epoch time:      08234.65511774
Element set:     257
Inclination:      101.4627 deg
RA of node:       263.9532 deg
Eccentricity:    0.0012198
Arg of perigee:   133.6975 deg
Mean anomaly:     226.5112 deg
Mean motion:   12.53573964 rev/day
Decay rate:       -2.7e-07 rev/day^2
Epoch rev:           54518
Checksum:              303

Satellite: AO-10
Catalog number: 14129
Epoch time:      08234.27716627
Element set:     547
Inclination:      026.0261 deg
RA of node:       199.5308 deg
Eccentricity:    0.5969425
Arg of perigee:   150.3823 deg
Mean anomaly:     263.7562 deg
Mean motion:   02.05868850 rev/day
Decay rate:       -7.8e-07 rev/day^2
Epoch rev:           18944
Checksum:              329

Satellite: UO-11
Catalog number: 14781
Epoch time:      08233.63153778
Element set:    0750
Inclination:      098.1497 deg
RA of node:       268.6146 deg
Eccentricity:    0.0008335
Arg of perigee:   221.4145 deg
Mean anomaly:     138.6416 deg
Mean motion:   14.79659540 rev/day
Decay rate:        5.3e-07 rev/day^2
Epoch rev:           31338
Checksum:              316

Satellite: RS-15
Catalog number: 23439
Epoch time:      08234.82301456
Element set:     139
Inclination:      064.8159 deg
RA of node:       028.9067 deg
Eccentricity:    0.0146991
Arg of perigee:   110.3694 deg
Mean anomaly:     251.3098 deg
Mean motion:   11.27553007 rev/day
Decay rate:       -3.9e-07 rev/day^2
Epoch rev:           56236
Checksum:              310

Satellite: FO-29
Catalog number: 24278
Epoch time:      08233.90487316
Element set:    0859
Inclination:      098.5823 deg
RA of node:       141.7132 deg
Eccentricity:    0.0351263
Arg of perigee:   048.1301 deg
Mean anomaly:     314.9252 deg
Mean motion:   13.52939302 rev/day
Decay rate:       -2.4e-07 rev/day^2
Epoch rev:           59314
Checksum:              304

Satellite: SO-33
Catalog number: 25509
Epoch time:      08234.54454856
Element set:     268
Inclination:      031.4358 deg
RA of node:       306.8088 deg
Eccentricity:    0.0355275
Arg of perigee:   238.6689 deg
Mean anomaly:     117.8712 deg
Mean motion:   14.28222079 rev/day
Decay rate:        6.8e-07 rev/day^2
Epoch rev:           51296
Checksum:              339

Satellite: AO-40
Catalog number: 26609
Epoch time:      08231.70263693
Element set:     104
Inclination:      007.6890 deg
RA of node:       065.8690 deg
Eccentricity:    0.7929895
Arg of perigee:   113.4517 deg
Mean anomaly:     342.4811 deg
Mean motion:   01.25585855 rev/day
Decay rate:      -3.17e-06 rev/day^2
Epoch rev:            3582
Checksum:              324

Satellite: VO-52
Catalog number: 28650
Epoch time:      08234.85367545
Element set:      11
Inclination:      097.7852 deg
RA of node:       299.6460 deg
Eccentricity:    0.0026030
Arg of perigee:   287.4171 deg
Mean anomaly:     072.4171 deg
Mean motion:   14.81490629 rev/day
Decay rate:      -1.46e-06 rev/day^2
Epoch rev:           17832
Checksum:              314

Satellite: PO-63
Catalog number: 29712
Epoch time:      08234.72750280
Element set:     728
Inclination:      097.8715 deg
RA of node:       291.6703 deg
Eccentricity:    0.0014443
Arg of perigee:   163.9867 deg
Mean anomaly:     196.1807 deg
Mean motion:   14.80243394 rev/day
Decay rate:       4.03e-06 rev/day^2
Epoch rev:            8716
Checksum:              325

/EX
SB KEPS @ AMSAT  $ORB08234.D
Orbital Elements  08234.MICROS

HR AMSAT ORBITAL ELEMENTS FOR THE MICROSATS
FROM WA5QGD FORT WORTH,TX August 21, 2008
Send Subscribe/unsubscribe to KEPS at 
http://www.amsat.org/mailman/listinfo/keps
BID: ORB08234.D
TO ALL RADIO AMATEURS BT

Satellite: AO-16
Catalog number: 20439
Epoch time:      08234.90021657
Element set:     399
Inclination:      098.2361 deg
RA of node:       211.6226 deg
Eccentricity:    0.0010974
Arg of perigee:   346.8693 deg
Mean anomaly:     013.2206 deg
Mean motion:   14.31800527 rev/day
Decay rate:       -2.7e-07 rev/day^2
Epoch rev:           97032
Checksum:              289

Satellite: LO-19
Catalog number: 20442
Epoch time:      08233.95844268
Element set:     322
Inclination:      098.2060 deg
RA of node:       219.0677 deg
Eccentricity:    0.0011745
Arg of perigee:   347.3109 deg
Mean anomaly:     012.7856 deg
Mean motion:   14.32039106 rev/day
Decay rate:        5.3e-07 rev/day^2
Epoch rev:           97034
Checksum:              293

Satellite: AO-27
Catalog number: 22825
Epoch time:      08233.67742257
Element set:    0046
Inclination:      098.3897 deg
RA of node:       191.2979 deg
Eccentricity:    0.0009337
Arg of perigee:   073.1785 deg
Mean anomaly:     287.0418 deg
Mean motion:   14.29245575 rev/day
Decay rate:       1.03e-06 rev/day^2
Epoch rev:           77698
Checksum:              354

Satellite: IO-26
Catalog number: 22826
Epoch time:      08233.93023065
Element set:    0754
Inclination:      098.3822 deg
RA of node:       192.4222 deg
Eccentricity:    0.0009938
Arg of perigee:   067.7963 deg
Mean anomaly:     292.4267 deg
Mean motion:   14.29494213 rev/day
Decay rate:       -2.6e-07 rev/day^2
Epoch rev:           77711
Checksum:              323

